OpenBCM V1.08-5-g2f4a (Linux)

Packet Radio Mailbox

IZ3LSV

[San Dona' di P. JN]

 Login: GUEST





  
LU1HVK > KEP      10.01.20 16:41l 244 Lines 12026 Bytes #999 (0) @ WW
BID : 38574_LU1HVK
Read: GUEST
Subj: TLE 17 10
Path: IZ3LSV<ED1ZAC<GB7CIP<N3HYM<IK5FKA<LU9HGS<LU1HVK
Sent: 200110/1533Z 38574@LU1HVK.2594.CBA.ARG.SA LinBPQ6.0.19

                         _    _   _ _ _   ___     ___  __
                        | |  | | | / | | | \ \   / / |/ /
                        | |  | | | | | |_| |\ \ / /| ' /
                        | |__| |_| | |  _  | \ V / | . \
                        |_____\___/|_|_| |_|  \_/  |_|\_\

     BBS/NODO - CORDOBA (LEONES-FF87UH) - LU1HVK-4 NODO - LU1HVK-3 APRS

+----------------------------------------------------------------------------+
OSCAR 7
1  7530U 74089B   19289.17058056 -.00000045  00000-0 -65277-6 0  9998
2  7530 101.7606 255.6705 0012391 115.3256 313.6818 12.53640319 55494
OSCAR 11 (UoSAT 2)
1 14781U 84021B   19289.45550546  .00000053  00000-0  12654-4 0  9999
2 14781  97.6048 308.4689 0007050 289.8310  70.2144 14.83112491916512
OSCAR 19 (LUSAT)
1 20442U 90005G   19289.28267440  .00000005  00000-0  18033-4 0  9992
2 20442  98.6589 231.1337 0012175 152.1071 208.0767 14.32935183553509
EYESAT A
1 22825U 93061C   19289.00268091 -.00000006  00000-0  15770-4 0  9994
2 22825  98.9132 280.4171 0008736  18.6164 341.5335 14.30068626359003
ITAMSAT
1 22826U 93061D   19288.97653497 -.00000005  00000-0  15872-4 0  9990
2 22826  98.9072 280.3669 0009058   7.2082 352.9228 14.30402745359202
RADIO ROSTO
1 23439U 94085A   19288.89340941 -.00000055 +00000-0 -36285-3 0  9992
2 23439 064.8147 283.3591 0145230 089.9773 271.7792 11.27568310021330
JAS 2
1 24278U 96046B   19289.63468209 -.00000005  00000-0  33720-4 0  9990
2 24278  98.5561  66.8704 0349319 289.1255  67.2377 13.53093857144028
TECHSAT 1B
1 25397U 98043D   19288.88602181 -.00000008 +00000-0 +15587-4 0  9991
2 25397 098.6978 227.6294 0002277 067.5226 292.6194 14.23672234104612
ISS (ZARYA)
1 25544U 98067A   19290.06314727  .00000390  00000-0  14778-4 0  9994
2 25544  51.6434 116.9252 0007119 154.9791 351.3388 15.50200857194160
PCSAT
1 26931U 01043C   19288.84394590 -.00000031  00000-0  19745-4 0  9994
2 26931  67.0520  56.2057 0007459 268.2434  91.7813 14.30555234942019
SAUDISAT 1C
1 27607U 02058C   19289.43931036  .00000001  00000-0  20988-4 0  9997
2 27607  64.5563  43.4792 0074946 233.2234 126.1975 14.75579345904702
CUTE-1
1 27844U 03031E   19289.74699817  .00000040  00000-0  37846-4 0  9998
2 27844  98.6853 296.1710 0010651  48.2018 312.0068 14.22199587845351
CUBESAT XI 4
1 27848U 03031J   19288.92891791 +.00000027 +00000-0 +32177-4 0  9993
2 27848 098.6927 295.8893 0010703 061.3258 298.8994 14.21791902845059
MOZHAYETS 4
1 27939U 03042A   19289.76833122  .00000076  00000-0  22144-4 0  9990
2 27939  98.0580  63.3649 0013832  51.4745 308.7701 14.66809658858141
CUBESAT XI 5
1 28895U 05043F   19289.34652401  .00000130  00000-0  33862-4 0  9998
2 28895  97.9769  68.0979 0016180 338.2679  21.7836 14.63699767744981
CUTE-1.7+APD II
1 32785U 08021C   19289.82711579  .00000173  00000-0  24275-4 0  9990
2 32785  97.5564 283.9160 0012007 219.5994 140.4347 14.88357633621551
DELFI C3
1 32789U 08021G   19289.19812403  .00001165  00000-0  81347-4 0  9997
2 32789  97.4523 335.1914 0013704  79.1910 281.0859 15.07176378624964
SEEDS
1 32791U 08021J   19289.70990692  .00000197  00000-0  25328-4 0  9995
2 32791  97.5317 289.8850 0012926 191.7594 168.3325 14.90887339621999
YUBELEINY
1 32953U 08025A   19289.72647341  .00000020  00000-0  75656-4 0  9995
2 32953  82.5002  70.1053 0018951 226.0150 133.9368 12.43091844517223
PRISM (HITOMI)
1 33493U 09002B   19289.26526060  .00000588  00000-0  56855-4 0  9993
2 33493  98.1218 214.7568 0015775 143.5845 216.6452 14.96758257583030
KKS-1 (KISEKI)
1 33499U 09002H   19289.84529684  .00000096  00000-0  22209-4 0  9998
2 33499  98.3408 132.3431 0009084 176.4133 183.7142 14.75469726576943
SWISSCUBE
1 35932U 09051B   19289.76598560  .00000112  00000-0  36402-4 0  9995
2 35932  98.5990  99.3417 0008159 150.5241 209.6418 14.56318445534258
BEESAT
1 35933U 09051C   19288.73123460  .00000085  00000-0  30128-4 0  9993
2 35933  98.6006 100.0826 0006083 163.5876 196.5519 14.56402974534217
ITUPSAT 1
1 35935U 09051E   19289.47639502  .00000075  00000-0  28365-4 0  9995
2 35935  98.6116 101.0796 0008428 161.9924 198.1573 14.55558569534061
XIWANG-1 (HOPE-1)
1 36122U 09072B   19289.89908148 -.00000026  00000-0  41436-4 0  9999
2 36122 100.0784 286.6500 0008197  66.7371 293.4594 13.16351619472698
TISAT 1
1 36799U 10035E   19289.12729507  .00000400  00000-0  46426-4 0  9995
2 36799  98.1711  85.3593 0013306  57.9474 302.3033 14.91176735502561
JUGNU
1 37839U 11058B   19289.25068913  .00000315  00000-0  26171-4 0  9998
2 37839  19.9626 329.7542 0018711 204.6160 218.3379 14.12661352414186
SRMSAT
1 37841U 11058D   19289.47554740  .00000291  00000-0  14618-4 0  9999
2 37841  19.9733  27.6401 0011997  72.4606  11.0927 14.10641060413628
M-CUBED/EXP-1 PRIME
1 37855U 11061F   19289.49048771  .00001469  00000-0  80588-4 0  9999
2 37855 101.7168 246.5941 0172996  81.5801 280.4978 15.05646381434808
HORYU 2
1 38340U 12025D   19289.04506617  .00000148  00000-0  29621-4 0  9993
2 38340  98.3173 331.1455 0012789 103.2681 256.9954 14.75759686398762
STRAND 1
1 39090U 13009E   19289.77763980 +.00000013 +00000-0 +19909-4 0  9996
2 39090 098.4764 133.6624 0008168 296.0016 064.0328 14.35100578347598
SOMP
1 39134U 13015E   19289.47937614 +.00001114 +00000-0 +59525-4 0  9997
2 39134 064.8643 352.2854 0037182 283.4185 076.2800 15.20398050358422
BEESAT 3
1 39135U 13015F   19289.48354529 +.00000830 +00000-0 +50380-4 0  9991
2 39135 064.8697 012.2701 0036791 291.3913 068.3289 15.17655773358032
BEESAT 2
1 39136U 13015G   19289.63214617 +.00000711 +00000-0 +45467-4 0  9990
2 39136 064.8704 015.9595 0028524 296.6019 063.2184 15.17073012357973
CUBEBUG 1
1 39153U 13018D   19289.85635746 +.00000189 +00000-0 +31601-4 0  9990
2 39153 097.9812 027.3246 0017361 164.8745 195.2990 14.80607776349519
ZACUBE
1 39417U 13066B   19289.48405053 +.00000199 +00000-0 +31391-4 0  9998
2 39417 097.5626 296.2538 0058975 002.7350 357.4174 14.81161434318777
TRITON 1
1 39427U 13066M   19289.70296606 +.00000163 +00000-0 +33763-4 0  9992
2 39427 097.6914 259.7581 0114614 140.6695 220.2905 14.67890065315755
GOMX 1
1 39430U 13066Q   19289.89153904 +.00000117 +00000-0 +30640-4 0  9999
2 39430 097.7595 238.6040 0149884 235.1070 123.5958 14.59296110314131
HUMSAT D
1 39433U 13066T   19289.10673938  .00000151  00000-0  20086-4 0  9991
2 39433  97.5410 331.6564 0029207 261.6580  98.1328 14.92271071320882
CUBEBUG 2
1 39440U 13066AA  19289.48229726 +.00000196 +00000-0 +34018-4 0  9991
2 39440 097.6101 280.8925 0081478 056.4222 304.4733 14.75898305316441
FUNCUBE 1
1 39444U 13066AE  19289.75573338 +.00000249 +00000-0 +36967-4 0  9990
2 39444 097.5596 298.5683 0057897 355.2081 004.8571 14.81990065317120
UWE-3
1 39446U 13066AG  19289.48424277 +.00000202 +00000-0 +33367-4 0  9999
2 39446 097.5856 288.0335 0070774 030.2440 330.2828 14.78433723316373
SPROUT
1 39770U 14029E   19289.51208615 +.00000463 +00000-0 +57178-4 0  9994
2 39770 097.8892 032.0647 0010048 056.0315 304.1873 14.87457247292644
UNISAT 6
1 40012U 14033C   19289.62693393 +.00000160 +00000-0 +31069-4 0  9998
2 40012 097.7394 150.9681 0059696 071.2405 289.5268 14.74018082286351
DUCHIFAT 1
1 40021U 14033M   19289.83302639  .00000317  00000-0  38129-4 0  9999
2 40021  97.9250 214.8279 0013525  19.8943 340.2800 14.90705476289441
QB50P1
1 40025U 14033R   19289.58839573 +.00000290 +00000-0 +36838-4 0  9992
2 40025 097.9041 209.0654 0013231 030.6523 329.5464 14.88998783288655
CHUBUSAT 1
1 40300U 14070C   19289.77677637  .00000646  00000-0  30998-4 0  9997
2 40300  97.3177   0.8671 0020432 357.3565 151.6020 15.22206019274286
NUDT-PHONESAT
1 40900U 15049B   19289.88123247 +.00001751 +00000-0 +76983-4 0  9997
2 40900 097.4369 298.0616 0014325 119.6795 325.2923 15.23141670225957
ZDPS 2A
1 40901U 15049C   19289.92780042 +.00000738 +00000-0 +39692-4 0  9995
2 40901 097.4620 294.0345 0014333 139.1102 310.6616 15.17874648225476
ZDPS 2B
1 40902U 15049D   19289.89965735 +.00000713 +00000-0 +38607-4 0  9994
2 40902 097.4577 291.4068 0014428 136.4653 311.3102 15.17738802225443
XW-2A
1 40903U 15049E   19289.90203995 +.00001630 +00000-0 +39886-4 0  9999
2 40903 097.3251 333.2821 0015221 071.1125 054.1526 15.42193479228779
KAITUO 1A
1 40904U 15049F   19289.90885323 +.00000451 +00000-0 +27268-4 0  9992
2 40904 097.4708 289.8899 0015441 146.0644 302.0529 15.15463290225205
OBJECT G
1 40905U 15049G   19289.87597345 +.00000302 +00000-0 +19977-4 0  9996
2 40905 097.4762 287.2842 0016356 141.6065 302.6176 15.14362695225064
XW-2C
1 40906U 15049H   19289.88413642 +.00000411 +00000-0 +24958-4 0  9991
2 40906 097.4712 290.0032 0015586 137.1133 307.7189 15.15781352225205
XW-2D
1 40907U 15049J   19289.91321663 +.00000503 +00000-0 +29612-4 0  9991
2 40907 097.4695 289.7127 0015086 134.2691 314.0236 15.15979480225225
LILACSAT 2
1 40908U 15049K   19289.89446611 -.00000037 +00000-0 +15761-5 0  9994
2 40908 097.4834 288.3858 0016509 141.8854 306.4638 15.13863996224999
XW-2F
1 40910U 15049M   19289.89105465 +.00000713 +00000-0 +38890-4 0  9993
2 40910 097.4660 291.8746 0015839 126.7619 317.3671 15.17466826225242
XW-2B
1 40911U 15049N   19289.88471535 +.00000476 +00000-0 +28254-4 0  9996
2 40911 097.4715 290.3546 0014998 135.1275 309.0643 15.15907339225113
KAITUO 1B
1 40912U 15049P   19289.87057409 +.00000995 +00000-0 +49531-4 0  9993
2 40912 097.4509 295.6860 0016403 110.3988 334.7839 15.19801220225568
TIANWANG 1C (TW-1C)
1 40926U 15051B   19289.92452896 +.00011338 +00000-0 +15246-3 0  9994
2 40926 097.1224 336.0265 0005431 286.7951 198.9497 15.58029616228860
TIANWANG 1B (TW-1B)
1 40927U 15051C   19289.94516498 +.00010689 +00000-0 +15338-3 0  9996
2 40927 097.1258 335.1699 0006008 304.0820 178.7390 15.56289042228709
